Regional Weather Roundup
Issued by NWS Cleveland, OH

Home | Current Version | Previous Version | Graphics & Text | Print | Product List | Glossary On
Versions: 1 2 3 4 5 6 7 8 9 10 11 12 13 14 15 16 17 18 19 20 21 22 23 24 25 26 27 28 29 30 31 32 33 34 35 36 37 38 39 40 41 42 43 44 45 46 47 48 49 50
183
ASUS41 KCLE 231610
RWRCLE
OHIO REGIONAL WEATHER ROUNDUP
NATIONAL WEATHER SERVICE WILMINGTON, OH
1200 PM EDT TUE MAY 23 2017

NOTE: "FAIR" INDICATES FEW OR NO CLOUDS BELOW 12,000 FEET WITH NO
SIGNIFICANT WEATHER AND/OR OBSTRUCTIONS TO VISIBILITY.

OHZ001>008-015>018-024>027-034-035-043-044-231700-
   NORTHWEST OHIO

CITY           SKY/WX    TMP DP  RH WIND       PRES   REMARKS
DEFIANCE       FAIR      68  47  46 VRB6      29.84F
FINDLAY        FAIR      70  47  43 SE9       29.84F
TOLEDO EXPRESS FAIR      70  49  47 SW8       29.84F
TOLEDO EXEC    FAIR      69  50  50 SW5       29.86F
LIMA           FAIR      69  48  47 S12       29.84F
$$

OHZ009>014-019>023-028>033-038-089-231700-
   NORTHEAST OHIO

CITY           SKY/WX    TMP DP  RH WIND       PRES   REMARKS
CLE-HOPKINS    FAIR      73  48  41 SE8       29.88F
CLE-LAKEFRONT  FAIR      67  54  63 N12       29.86F
CUY CO. ARPT   PTSUNNY   72  50  46 SE12      29.88F
LORAIN-ELYRIA  FAIR      70  46  42 S12G20    29.87F
ASHTABULA      FAIR      68  48  48 SE7       29.90F
AKRON-CANTON   FAIR      69  46  43 E10       29.88F
WOOSTER        FAIR      68  49  50 SE9       29.88S
MANSFIELD      FAIR      68  44  42 E12       29.87S
YOUNGSTOWN     FAIR      68  47  46 E10       29.90F
$$

OHZ042-051>053-060>062-070>072-077>081-231700-
  SOUTHWEST OHIO

CITY           SKY/WX    TMP DP  RH WIND       PRES   REMARKS
CINC-COVINGTON FAIR      69  52  54 SE8       29.80F
CINC-LUNKEN    FAIR      71  53  52 NE8       29.81F
HAMILTON       FAIR      70  53  54 VRB5      29.81F
DAYTON         PTSUNNY   66  49  54 E8        29.83F
WRIGHT-PAT AFB CLOUDY    68  49  50 E6        29.82F
DAYTON GENERAL FAIR      68  50  52 E7        29.81F
WILMINGTON     FAIR      66  51  58 E9        29.81F
$$

OHZ036-037-039>041-045>050-054>059-063>069-073>076-082>088-231700-
  CENTRAL AND SOUTHEAST OHIO

CITY           SKY/WX    TMP DP  RH WIND       PRES   REMARKS
COLUMBUS       PTSUNNY   69  48  47 E10G17    29.83F
OSU AIRPORT    FAIR      68  49  50 SE7       29.83F
BOLTON FIELD   SUNNY     66  50  55 E6        29.84F
RICKENBACK AFB FAIR      67  51  55 E10       29.82F
NEWARK         FAIR      70  45  40 SE10      29.84F
MARION         FAIR      69  44  40 SE10      29.87S
LANCASTER      FAIR      69  50  50 E8        29.84F
ZANESVILLE     FAIR      68  48  48 E9        29.85F
NEW PHILLY     FAIR      69  45  41 SE12      29.87F
$$




USA.gov is the U.S. government's official web portal to all federal, state and local government web resources and services.